Regional Weather Roundup
Issued by NWS

Home | Current Version | Previous Version | Text Only | Print | Product List | Glossary On
Versions: 1 2 3 4 5 6 7 8 9 10 11 12 13 14 15 16 17 18 19 20 21 22 23 24 25 26 27 28 29 30 31 32 33 34 35 36 37 38 39 40 41 42 43 44 45 46 47 48 49 50
000
ASUS45 KTFX 021410
RWRMT
MONTANA REGIONAL WEATHER ROUNDUP
NATIONAL WEATHER SERVICE GREAT FALLS MT
800 AM MDT SUN AUG 02 2015

NOTE: "FAIR" INDICATES FEW OR NO CLOUDS BELOW 12000 FEET WITH NO
SIGNIFICANT WEATHER AND/OR OBSTRUCTIONS TO VISIBILITY.

MTZ001>007-043-021500-
WEST OF THE DIVIDE

CITY           SKY/WX    TMP DP  RH WIND       PRES   REMARKS
KALISPELL      SUNNY     60  43  53 CALM      29.99R
MISSOULA       MOSUNNY   54  43  66 CALM      30.07R
BUTTE          SUNNY     50  35  56 SE3       30.18S
MULLAN PASS    CLOUDY    67  16  14 NW3       30.17S
DEER LODGE       N/A     57  39  51 CALM      30.16F
EUREKA           N/A     55  36  47 CALM      30.01S
HAMILTON         N/A     63  39  42 S6        30.07R
LIBBY            N/A     54  34  47 CALM      30.02R
PLAINS           N/A     52  38  58 CALM      30.01R
RONAN            N/A     58  45  62 CALM      30.04R
$$

MTZ008-052>055-021500-
SOUTHWEST MONTANA

CITY           SKY/WX    TMP DP  RH WIND       PRES   REMARKS
BOZEMAN        SUNNY     58  47  66 S7        30.10S
DILLON         SUNNY     56  41  57 S9        30.15R
W YELLOWSTONE  SUNNY     46  39  76 CALM      30.26S
THREE FORKS      N/A     54  37  52 CALM      30.08R
TWIN BRIDGES     N/A     58  39  49 SE7       30.11S
$$

MTZ009-010-012-014-046-048-049-054-021500-
EAST SLOPES AND CENTRAL MONTANA

CITY           SKY/WX    TMP DP  RH WIND       PRES   REMARKS
CUT BANK       MOSUNNY   57  50  77 NW5       30.12R
GREAT FALLS    MOSUNNY   60  51  72 W10       30.09R
MALMSTROM AFB  MOSUNNY   60  52  76 W9        30.09R
HELENA         SUNNY     69  38  32 W6        30.09R
CONRAD           N/A     60  56  87 W8        30.12R
$$

MTZ011-013-016-021-045-047-050-051-021500-
NORTH CENTRAL MONTANA

CITY           SKY/WX    TMP DP  RH WIND       PRES   REMARKS
HAVRE          SUNNY     65  53  65 E15       30.06R
LEWISTOWN      SUNNY     65  53  65 E13       30.08R
CHINOOK          N/A     64  55  72 CALM      30.07R
FORT BENTON      N/A     63  45  51 CALM      30.08R
$$

MTZ017>020-022>027-061-062-021500-
NORTHEAST MONTANA

CITY           SKY/WX    TMP DP  RH WIND       PRES   REMARKS
GLASGOW        SUNNY     64  52  64 CALM      30.04R
JORDAN           N/A     66  52  60 E13       30.04R
SIDNEY         SUNNY    N/A N/A N/A NW10      30.01R
WOLF POINT     SUNNY     66  54  65 CALM      30.04R
MALTA            N/A     61  53  74 CALM      30.02R
PLENTYWOOD       N/A     63  55  77 N10       30.00S
POPLAR           N/A     64  54  68 N3        30.03S
SCOBEY           N/A     60  53  77 N7        30.02R
$$

MTZ028>42-056>058-021500-
SOUTHCENTRAL AND SOUTHEAST MONTANA

CITY           SKY/WX    TMP DP  RH WIND       PRES   REMARKS
BAKER          SUNNY     66  54  65 NE5       30.03R
BILLINGS       MOSUNNY   66  47  50 NE6       30.03R
LIVINGSTON     SUNNY     60  40  47 NW10      30.09S
MILES CITY     SUNNY     66  52  60 NE18      30.00R
EKALAKA          N/A     70  42  36 E9        30.00R
FORSYTH          N/A     68  52  56 NE12      30.00R
LAUREL           N/A     68  38  33 NW1       30.02R
ROUNDUP          N/A     66  50  56 N10       29.96R
$$

REGIONAL REPORTS...DAKOTAS

CITY           SKY/WX    TMP DP  RH WIND       PRES   REMARKS
WILLISTON      SUNNY     67  54  63 N10       29.99R
MINOT          SUNNY     65  55  70 NW14G21   29.91R
DICKINSON      SUNNY     62  55  77 NW7       29.98R
CROSBY         FAIR      61  61 100 N14       29.99R
BISMARCK       SUNNY     68  57  68 NW10      29.91R
GRAND FORKS    MOSUNNY   67  59  75 NW13      29.77R
FARGO          MOSUNNY   68  60  75 N14       29.76R
BUFFALO SD       N/A     69  50  50 NE12      29.94R
RAPID CITY     SUNNY     69  49  48 N13       29.98R
$$

REGIONAL REPORTS...WYOMING/IDAHO/WASHINGTON

CITY           SKY/WX    TMP DP  RH WIND       PRES   REMARKS
GILLETTE       PTSUNNY   69  40  34 S5        30.01S
SHERIDAN       MOSUNNY   70  45  40 N6        30.00R
BUFFALO WY     MOSUNNY   74  38  27 W3        30.07S
CODY           SUNNY     72  37  28 CALM      30.10R
YELLOWSTONE LA   N/A     46  39  76 CALM      30.35S
IDAHO FALLS    MOSUNNY   55  45  68 N8        30.08S
SALMON         MOSUNNY   52  45  76 CALM      30.10S
BOISE          SUNNY     72  38  29 CALM      29.91R
SPOKANE        CLOUDY    66  32  28 VRB3      29.92R
$$

REGIONAL REPORTS...ALBERTA

CITY           SKY/WX    TMP DP  RH WIND       PRES   REMARKS
EDMONTON       SUNNY     61  55  82 S3        30.03S
CALGARY        MOSUNNY   63  52  67 S12       30.08F
WATERTON GATE    N/A     52  50  93 SW2         N/A
CARDSTON         N/A     57  50  77 S1          N/A
MILK RIVER       N/A     57  50  77 NW8         N/A
ONEFOUR          N/A     64  50  59 E9          N/A
$$

REGIONAL REPORTS...SASKATCHEWAN

CITY           SKY/WX    TMP DP  RH WIND       PRES   REMARKS
SWIFT CURRENT  PTSUNNY   59  54  82 W3        30.06S
REGINA         MOSUNNY   61  55  82 N13       30.00S
SASKATOON      SUNNY     57  54  88 NW7       30.04R
CYPRESS HILLS    N/A     63  48  59 E2          N/A
VAL MARIE        N/A     61  54  77 N7          N/A
ROCKGLEN         N/A     59  54  82 NW7         N/A
ASSINIBOIA       N/A     57  54  88 S2          N/A
$$


USA.gov is the U.S. government's official web portal to all federal, state and local government web resources and services.